Location: Newark
(51.3318°N, 0.0053°E)
Time: 17:53:23
(UTC+00:00)

M-CUBED/EXP-1 PRIME - Pass Details

Date: 05 July 2022
Orbit: 422 x 631 km, 101.7° (Epoch: 17 August)

Event Time Altitude Azimuth Distance (km) Brightness Sun altitude
Exits shadow 00:56:33 23° 149° (SSE) 990 ? -15.0°
Maximum altitude 00:58:29 74° 68° (ENE) 476 ? -14.9°
Drops below altitude 10° 01:01:58 10° 343° (NNW) 1,644 ? -14.8°
Sets 01:04:05 0° 341° (NNW) 2,562 ? -14.7°
